DW6561 Weather Reports


time (UTC)temp
F
wind
direction
speed
knots
gust
knots
rain 1hr
in
rain 24hr
in
rain mn
in
humidity
%
barometer
mb
20240222103008 42 178 5.2 10.4 0.00 0.00 0.00 85 1023.7
20240222101511 42 209 6.1 12.2 0.00 0.00 0.00 85 1023.6
20240222100022 42 161 5.2 10.4 0.00 0.00 0.00 85 1023.6
20240222094505 43 242 5.2 11.3 0.00 0.00 0.00 85 1023.5
20240222093011 43 202 4.3 12.2 0.00 0.00 0.00 84 1023.4
20240222091508 43 161 6.1 13.9 0.00 0.00 0.00 83 1023.3
20240222090021 44 202 6.1 13.0 0.00 0.00 0.00 83 1023.1
20240222084517 44 207 7.0 13.0 0.00 0.00 0.00 83 1022.9
20240222083007 44 92 6.1 15.6 0.00 0.00 0.00 83 1022.8
20240222081507 44 209 6.1 14.8 0.00 0.00 0.00 83 1022.6
20240222080005 44 217 7.0 15.6 0.00 0.00 0.00 83 1022.4
20240222074505 44 158 6.1 14.8 0.00 0.00 0.00 83 1022.4
20240222073010 44 215 7.0 14.8 0.00 0.00 0.00 83 1022.1
20240222071505 44 186 6.1 15.6 0.00 0.00 0.00 84 1022.0
20240222070008 44 186 6.1 13.9 0.00 0.00 0.00 84 1021.9
20240222064515 45 206 7.0 15.6 0.00 0.00 0.00 84 1021.8
20240222063006 45 225 7.0 14.8 0.00 0.00 0.00 85 1021.6
20240222061504 45 190 7.0 16.5 0.00 0.00 0.00 84 1021.4
20240222060008 45 187 7.0 15.6 0.00 0.00 0.00 84 1021.2
20240222054514 45 140 6.1 13.9 0.00 0.00 0.00 84 1021.2
20240222053009 46 202 5.2 13.0 0.00 0.00 0.00 83 1021.0
20240222051509 46 192 7.0 14.8 0.00 0.00 0.00 83 1020.9
20240222050005 46 219 7.0 13.9 0.00 0.00 0.00 83 1020.9
20240222044506 47 133 7.0 13.9 0.00 0.00 0.00 82 1020.7
20240222043008 47 198 5.2 15.6 0.00 0.00 0.00 82 1020.5
20240222041504 46 208 6.1 13.0 0.00 0.00 0.00 82 1020.2
20240222040004 46 109 2.6 9.6 0.00 0.00 0.00 82 1020.2
20240222034507 46 217 2.6 10.4 0.00 0.00 0.00 81 1020.1
20240222033010 46 233 2.6 10.4 0.00 0.00 0.00 81 1019.8
20240222031516 47 130 4.3 8.7 0.00 0.00 0.00 80 1019.7
20240222030004 47 96 3.5 8.7 0.00 0.00 0.00 79 1019.6
20240222024504 46 187 2.6 8.7 0.00 0.00 0.00 80 1019.3
20240222023005 46 138 3.5 10.4 0.00 0.00 0.00 82 1019.2
20240222021506 45 202 4.3 10.4 0.00 0.00 0.00 83 1019.1
20240222020009 45 217 3.5 11.3 0.00 0.00 0.00 83 1019.1
20240222014508 46 209 4.3 9.6 0.00 0.00 0.00 80 1018.8
20240222013006 46 126 4.3 10.4 0.00 0.00 0.00 78 1018.7
20240222011506 47 163 1.7 6.1 0.00 0.00 0.00 77 1018.6
20240222010009 48 178 0.9 7.8 0.00 0.00 0.00 75 1018.6
20240222004505 49 201 0.9 5.2 0.00 0.00 0.00 74 1018.6
20240222003004 49 178 0.0 3.5 0.00 0.00 0.00 72 1018.5
20240222001516 50 262 0.0 4.3 0.00 0.00 0.00 71 1018.3
20240222000010 51 161 4.3 9.6 0.00 0.00 0.00 68 1018.2
20240221234516 53 306 3.5 8.7 0.00 0.00 0.00 61 1017.8
20240221233008 54 276 3.5 8.7 0.00 0.00 0.00 59 1017.7
20240221231508 55 256 1.7 8.7 0.00 0.00 0.00 61 1017.6
20240221230008 53 193 1.7 8.7 0.00 0.00 0.00 65 1017.7
20240221224509 51 166 0.9 3.5 0.00 0.00 0.00 75 1017.7
20240221223004 50 94 0.0 2.6 0.00 0.00 0.00 77 1017.7
20240221221516 50 290 0.0 2.6 0.00 0.00 0.00 76 1017.6
20240221220007 50 309 0.0 2.6 0.00 0.00 0.00 76 1017.5
20240221214508 51 346 0.0 3.5 0.00 0.00 0.00 74 1017.5
20240221213024 50 118 0.0 3.5 0.00 0.00 0.00 76 1017.1
20240221211511 49 102 0.0 2.6 0.00 0.00 0.00 77 1017.1
20240221210014 49 98 0.9 5.2 0.00 0.00 0.00 78 1017.1
20240221204509 48 44 0.9 5.2 0.00 0.00 0.00 79 1017.1
20240221203009 48 43 0.0 3.5 0.00 0.00 0.00 80 1017.1
20240221201511 47 112 1.7 3.5 0.00 0.00 0.00 80 1017.1
20240221200009 46 96 0.0 5.2 0.00 0.00 0.00 83 1017.1
20240221194509 45 113 1.7 3.5 0.00 0.00 0.00 84 1017.1
20240221193007 45 150 0.9 3.5 0.00 0.00 0.00 85 1017.0
20240221191509 45 101 1.7 3.5 0.00 0.00 0.00 86 1017.0
20240221190012 45 113 0.0 2.6 0.00 0.00 0.00 87 1017.0
20240221184515 45 44 0.0 1.7 0.00 0.00 0.00 87 1016.7
20240221183009 44 72 0.0 1.7 0.00 0.00 0.00 87 1016.7
20240221181512 44 94 0.0 2.6 0.00 0.00 0.00 87 1016.6
20240221180009 44 101 0.0 1.7 0.00 0.00 0.00 88 1016.4
20240221174509 43 153 0.0 1.7 0.00 0.00 0.00 89 1016.2
20240221173014 43 153 0.0 1.7 0.00 0.00 0.00 89 1016.0
20240221171511 43 153 0.0 1.7 0.00 0.00 0.00 90 1015.8
20240221170023 42 153 0.0 1.7 0.00 0.00 0.00 90 1015.7
20240221164511 42 153 0.0 1.7 0.00 0.00 0.00 92 1015.7
20240221163011 41 153 0.0 0.9 0.00 0.00 0.00 93 1015.5
20240221161518 41 153 0.0 0.0 0.00 0.00 0.00 93 1015.2
20240221160011 40 153 0.0 0.9 0.00 0.00 0.00 93 1015.1
20240221154513 40 153 0.0 0.0 0.00 0.00 0.00 93 1015.0
20240221153007 40 153 0.0 0.9 0.00 0.00 0.00 93 1014.9
20240221151507 40 153 0.0 0.9 0.00 0.00 0.00 93 1014.8
20240221150012 40 153 0.0 1.7 0.00 0.01 0.00 93 1014.7
20240221144509 40 153 0.0 1.7 0.00 0.01 0.00 93 1014.5
20240221143009 40 153 0.0 1.7 0.00 0.01 0.00 92 1014.6
20240221141510 40 194 0.0 0.9 0.00 0.01 0.00 92 1014.5
20240221140009 40 194 0.0 0.9 0.00 0.01 0.00 92 1014.3
20240221134508 40 194 0.0 0.0 0.00 0.01 0.00 92 1014.4
20240221133009 40 194 0.0 1.7 0.00 0.01 0.00 91 1014.2
20240221131513 40 245 0.0 0.9 0.00 0.01 0.00 91 1014.0
20240221130016 40 246 0.0 0.0 0.00 0.01 0.00 91 1014.0
20240221124509 40 245 0.0 0.9 0.00 0.01 0.00 91 1014.2
20240221123009 41 245 0.0 0.0 0.00 0.01 0.00 91 1014.1
20240221121506 41 246 0.0 0.0 0.00 0.01 0.00 91 1014.1
20240221120019 41 245 0.0 0.0 0.00 0.01 0.00 91 1014.1
20240221114512 41 246 0.0 0.0 0.00 0.01 0.00 91 1013.8
20240221113011 41 245 0.0 0.9 0.00 0.01 0.00 91 1013.7
20240221111517 41 245 0.0 0.9 0.00 0.01 0.00 91 1013.7
20240221110009 41 246 0.0 1.7 0.00 0.01 0.00 91 1013.8
20240221104506 41 245 0.0 1.7 0.00 0.01 0.00 91 1013.9